Regional Weather Roundup
Issued by NWS

Home | Current Version | Previous Version | Text Only | Print | Product List | Glossary Off
Versions: 1 2 3 4 5 6 7 8 9 10 11 12 13 14 15 16 17 18 19 20 21 22 23 24 25 26 27 28 29 30 31 32 33 34 35 36 37 38 39 40 41 42 43 44 45 46 47 48 49 50

000
ASUS43 KLMK 311710
RWRKY
KENTUCKY REGIONAL WEATHER ROUNDUP
NATIONAL WEATHER SERVICE LOUISVILLE KY
100 PM EDT FRI OCT 31 2014

NOTE "FAIR" INDICATES FEW OR NO CLOUDS BELOW 12,000 FEET
WITH NO SIGNIFICANT WEATHER AND/OR OBSTRUCTIONS TO VISIBILITY.

KYZ001>023-026-027-061>063-070>075-311800-
WESTERN AND SOUTH CENTRAL KENTUCKY

CITY           SKY/WX    TMP DP  RH WIND       PRES   REMARKS
PADUCAH        CLOUDY    48  37  65 N17G25    30.14R
HENDERSON      CLOUDY    45  30  57 N18G29    30.11R
OWENSBORO      LGT RAIN  45  39  81 N15       30.08S FOG
HOPKINSVILLE   CLOUDY    50  47  87 NW10      30.05F HAZE
BOWLING GREEN  CLOUDY    51  43  74 NW8       30.02F
GLASGOW        CLOUDY    48  44  87 W5        29.99F
$$

KYZ024-025-028>034-038-045-046-053-311800-
NORTH CENTRAL KENTUCKY

CITY           SKY/WX    TMP DP  RH WIND       PRES   REMARKS
LOUISVILLE/SDF LGT RAIN  48  42  80 W12       29.98F
LOUISVILLE/LOU LGT RAIN  48  42  80 NW12      29.98F
FORT KNOX      LGT RAIN  46  41  81 W13       29.97F
$$

KYZ035>037-039>044-047>052-055>060-089>105-311800-
NORTHEAST KENTUCKY

CITY           SKY/WX    TMP DP  RH WIND       PRES   REMARKS
LEXINGTON      CLOUDY    48  43  82 SW7       29.95F HAZE
COVINGTON      LGT RAIN  45  40  82 W8        29.93F
FRANKFORT      LGT RAIN  47  43  86 W5        29.94F
$$

KYZ054-064>069-076>088-106>120-311800-
SOUTHEAST KENTUCKY

CITY           SKY/WX    TMP DP  RH WIND       PRES   REMARKS
JACKSON        LGT RAIN  45  41  86 VRB3      29.94F
LONDON         LGT RAIN  47  42  83 W7        29.96F
SOMERSET       CLOUDY    45  45 100 NW5       29.98F
MIDDLESBORO    RAIN      44  42  93 CALM      29.96F
MONTICELLO     FOG       46  45  93 W8        29.99F VSB 1
$$




USA.gov is the U.S. government's official web portal to all federal, state and local government web resources and services.